Regional Weather Roundup
Issued by NWS Sioux Falls, SD

Home | Current Version | Previous Version | Graphics & Text | Print | Product List | Glossary On
Versions: 1 2 3 4 5 6 7 8 9 10 11 12 13 14 15 16 17 18 19 20 21 22 23 24 25 26 27 28 29 30 31 32 33 34 35 36 37 38 39 40 41 42 43 44 45 46 47 48 49 50
404
ASUS43 KFSD 241710
RWRFSD

WEATHER ROUNDUP FOR SE SOUTH DAKOTA/SW MINNESOTA/NW IOWA
NATIONAL WEATHER SERVICE SIOUX FALLS SD
1100 AM CST FRI FEB 24 2017

NOTE: "FAIR" INDICATES FEW OR NO CLOUDS BELOW 12,000 FEET WITH NO
SIGNIFICANT WEATHER AND OR OBSTRUCTIONS TO VISIBILITY.


SDZ038>040-050-052>070-241800-
SOUTHEAST SOUTH DAKOTA

CITY           SKY/WX    TMP DP  RH WIND       PRES   REMARKS
BROOKINGS      PTSUNNY   23  10  57 NE24G36   29.94S WCI   7
CHAMBERLAIN    PTSUNNY   27  16  63 N18G26    30.07F WCI  14
HURON          MOSUNNY   27  14  58 N20G25    30.06S WCI  13
MADISON        FAIR      23  14  68 NE30G40   29.95R WCI   5
MITCHELL       CLOUDY    27  15  61 N28G35    30.03S WCI  11
SIOUX FALLS    CLOUDY    22  13  68 N22G31    29.92S WCI   6
WINNER         FAIR      24  14  65 N18       30.08S WCI  10
YANKTON        CLOUDY   N/A N/A N/A N23G33    29.95R
$$

MNZ071-072-080-081-089-090-097-098-241800-
SOUTHWEST MINNESOTA

CITY           SKY/WX    TMP DP  RH WIND       PRES   REMARKS
FAIRMONT       SNOW      23  20  88 N24       29.81F VSB 1/2 WCI   7
JACKSON        LGT SNOW  21  18  86 VRB20G31    N/A  VSB 1   WCI   6
LUVERNE        PTSUNNY   23  14  68 N20G30    29.90S HAZE    WCI   8
MARSHALL       CLOUDY    23  13  65 N23G30    29.94F WCI   7
MONTEVIDEO     CLOUDY    23  12  63 NE21G28   29.99S WCI   8
PIPESTONE      CLOUDY    21   9  58 NE18G30   29.90S WCI   6
REDWOOD FALLS  CLOUDY    25  10  53 N16G24    29.93R WCI  12
TRACY          CLOUDY    24  15  69 N23       29.91F WCI   9
WINDOM         CLOUDY    23  16  74 N28G33    29.85F WCI   6
WORTHINGTON    LGT SNOW  21  16  79 N25       29.85F WCI   4
$$

IAZ001>003-012>014-020>022-031-032-NEZ013-014-SDZ071-241800-
NORTHWEST IOWA

CITY           SKY/WX    TMP DP  RH WIND       PRES   REMARKS
CHEROKEE       CLOUDY    23  21  91 N21G29    29.82S WCI   8
DENISON        HVY RAIN  23  21  93 N25G38    29.75R VSB 1/2 WCI   7
ESTHERVILLE    FOG       21  20  96 N26G36    29.80S VSB 1/4 WCI   4
LE MARS        CLOUDY    25  19  80 N25       29.88S HAZE    WCI   9
ORANGE CITY      N/A     21  19  93 N17G26    29.86R WCI   7
SHELDON        LGT SNOW  21  21 100 N29G36    29.84S WCI   3
SIOUX CITY     HAZE      25  20  81 N24       29.88R VSB 1   WCI   9
SPENCER        FOG       22  19  89 N25G32    29.81F VSB 3/4 WCI   5
STORM LAKE     LGT SNOW  21  19  93 N30G44    29.77S VSB 1   WCI   3
$$

ABBREVIATIONS USED IN REMARKS
   TC - TEMPERATURE IN CELSIUS
  WCI - WIND CHILL INDEX
   HX - HEAT INDEX
  VSB - VISIBILITY





USA.gov is the U.S. government's official web portal to all federal, state and local government web resources and services.